TimeCST,TemperatureF,Dew PointF,Humidity,Sea Level PressureIn,VisibilityMPH,Wind Direction,Wind SpeedMPH,Gust SpeedMPH,PrecipitationIn,Events,Conditions,WindDirDegrees,DateUTC
12:55 AM,-15.0,-20.9,75,30.04,10.0,Calm,Calm,-,N/A,,Clear,0,2013-12-18 06:55:00
1:55 AM,-11.9,-16.1,82,30.02,10.0,Calm,Calm,-,N/A,,Clear,0,2013-12-18 07:55:00
2:55 AM,-11.9,-17.0,78,30.01,10.0,SE,3.5,-,N/A,,Clear,140,2013-12-18 08:55:00
3:55 AM,-11.0,-17.0,75,29.95,10.0,SE,5.8,-,N/A,,Clear,130,2013-12-18 09:55:00
4:55 AM,-11.0,-16.1,78,29.94,10.0,SE,4.6,-,N/A,,Partly Cloudy,130,2013-12-18 10:55:00
5:55 AM,-7.1,-13.0,75,29.91,10.0,ESE,6.9,-,N/A,,Overcast,120,2013-12-18 11:55:00
6:55 AM,-4.0,-9.0,79,29.88,10.0,ESE,8.1,-,N/A,,Overcast,120,2013-12-18 12:55:00
7:55 AM,-0.9,-7.1,75,29.84,10.0,ESE,9.2,-,N/A,,Overcast,110,2013-12-18 13:55:00
8:55 AM,-0.0,-6.0,76,29.82,10.0,East,9.2,-,N/A,,Overcast,100,2013-12-18 14:55:00
9:55 AM,1.9,-5.1,72,29.80,10.0,East,9.2,-,N/A,,Mostly Cloudy,100,2013-12-18 15:55:00
10:55 AM,3.9,-2.9,73,29.77,10.0,ESE,11.5,-,N/A,,Clear,120,2013-12-18 16:55:00
11:55 AM,8.1,-0.9,67,29.74,10.0,East,3.5,-,N/A,,Clear,80,2013-12-18 17:55:00
12:55 PM,12.0,1.0,61,29.71,9.0,ESE,4.6,-,N/A,,Clear,120,2013-12-18 18:55:00
1:55 PM,15.1,3.0,59,29.67,10.0,East,3.5,-,0.01,,Clear,80,2013-12-18 19:55:00
2:55 PM,15.1,3.9,61,29.68,10.0,North,4.6,-,N/A,,Scattered Clouds,10,2013-12-18 20:55:00
3:55 PM,10.9,1.9,67,29.72,10.0,Calm,Calm,-,N/A,,Overcast,0,2013-12-18 21:55:00
4:55 PM,10.0,1.9,70,29.74,10.0,Calm,Calm,-,N/A,,Mostly Cloudy,0,2013-12-18 22:55:00
5:55 PM,10.9,3.0,70,29.75,10.0,Calm,Calm,-,N/A,,Overcast,0,2013-12-18 23:55:00
6:55 PM,12.0,3.9,70,29.76,10.0,Calm,Calm,-,N/A,,Mostly Cloudy,0,2013-12-19 00:55:00
7:43 PM,10.4,3.2,73,29.69,10.0,NW,4.6,-,N/A,,Overcast,320,2013-12-19 01:43:00
7:55 PM,10.9,3.0,70,29.79,10.0,NW,3.5,-,N/A,,Overcast,320,2013-12-19 01:55:00
8:55 PM,12.0,3.9,70,29.82,10.0,NW,8.1,-,N/A,,Overcast,310,2013-12-19 02:55:00
9:51 PM,12.2,5.0,73,29.76,10.0,NW,13.8,-,N/A,,Overcast,320,2013-12-19 03:51:00
9:55 PM,12.0,5.0,73,29.85,10.0,NW,15.0,-,N/A,,Overcast,320,2013-12-19 03:55:00
10:55 PM,10.9,3.9,73,29.90,10.0,NW,11.5,-,N/A,,Overcast,320,2013-12-19 04:55:00
11:55 PM,10.0,3.9,76,29.94,5.0,NW,11.5,-,0.00,Snow,Light Snow,320,2013-12-19 05:55:00